Regional Weather Roundup
Issued by NWS

Home | Current Version | Previous Version | Graphics & Text | Print | Product List | Glossary Off
Versions: 1 2 3 4 5 6 7 8 9 10 11 12 13 14 15 16 17 18 19 20 21 22 23 24 25 26 27 28 29 30 31 32 33 34 35 36 37 38 39 40 41 42 43 44 45 46 47 48 49 50

000
ASUS43 KMPX 262310
RWRMN
WEATHER ROUNDUP FOR MINNESOTA
NATIONAL WEATHER SERVICE TWIN CITIES/CHANHASSEN MN
600 PM CDT THU MAR 26 2015


NOTE: "FAIR" INDICATES FEW OR NO CLOUDS BELOW 12,000 FEET WITH NO
SIGNIFICANT WEATHER AND/OR OBSTRUCTIONS TO VISIBILITY. N/A MEANS
CURRENT SKY AND/OR WEATHER CONDITIONS ARE NOT AVAILABLE.

MNZ060>063-068>070-270000-
   Twin Cities Metro

CITY           SKY/WX    TMP DP  RH WIND       PRES   REMARKS
TWIN CITIES    PTSUNNY   34  13  41 NW12      30.11R WCI  25
ST PAUL        CLOUDY    36  13  38 N9        30.12R
CRYSTAL        PTSUNNY   34  12  40 N15       30.10S WCI  24
BLAINE         MOSUNNY   37  12  35 NW15      30.10S
LAKEVILLE      CLOUDY    30  18  59 NW13      30.10R WCI  20
EDEN PRAIRIE   PTSUNNY   33  15  47 NW10      30.10R WCI  25
SOUTH ST PAUL  PTSUNNY   35  12  38 NW13G18   30.11R WCI  26
LAKE ELMO      PTSUNNY   34  14  44 NW15      30.10R WCI  24
$$
MNZ001>005-007-008-013>017-022>024-027-028-270000-
   Northwest Minnesota

CITY           SKY/WX    TMP DP  RH WIND       PRES   REMARKS
BEMIDJI        SUNNY     28  -1  28 N10G20    30.18R WCI  18
HALLOCK        SUNNY     28  12  50 N14G20    30.29R WCI  17
ROSEAU         SUNNY     28   9  43 N13       30.24S WCI  18
WARROAD        SUNNY     25   9  50 E3        30.25R
THIEF RVR FALL SUNNY     28   9  43 N14       30.25R WCI  17
CROOKSTON      MOSUNNY   30  12  47 N18       30.28R WCI  18
FOSSTON        SUNNY     30   7  37 N18       30.22R WCI  18
DETROIT LAKES  SUNNY     30  12  47 N8        30.20S WCI  23
MOORHEAD       SUNNY     34   3  27 N23       30.25R WCI  22
PARK RAPIDS    SUNNY     31  -3  23 N14       30.15R WCI  21
MAHNOMEN       FAIR      28  11  49 N14       30.22R WCI  17
$$
MNZ006-009>011-018-025>026-270000-
   North Central Minnesota

CITY           SKY/WX    TMP DP  RH WIND       PRES   REMARKS
BAUDETTE       SUNNY     25   2  37 N10       30.22R WCI  15
FLAG ISLAND    SUNNY     25   7  46 NW14      30.24R WCI  13
INTL FALLS     SUNNY     26   2  35 NW14      30.18R WCI  14
WASKISH        SUNNY     27   0  31 NW8       30.21R WCI  18
BIG FORK       SUNNY     28   1  31 N7        30.15R WCI  21
LONGVILLE      MOSUNNY   30   7  37 N6        30.15R WCI  24
GRAND RAPIDS   SUNNY     28   1  31 N13G21    30.12S WCI  18
CRANE LAKE     SUNNY     25  -2  30 N10G16    30.18R WCI  15
ORR            SUNNY     27  -4  26 NW7       30.13R WCI  19
COOK           SUNNY     25  -4  28 N8G18     30.15R WCI  16
WALKER         FAIR      28  -3  26 N7        30.16R WCI  21
$$
MNZ012-019>021-037-270000-
   Northeast Minnesota

CITY           SKY/WX    TMP DP  RH WIND       PRES   REMARKS
DULUTH         MOSUNNY   28   2  32 N14       30.09R WCI  17
ELY            SUNNY     25  -6  26 N8G21     30.12R WCI  16
HIBBING        SUNNY     28  -3  26 N16G23    30.13R WCI  16
EVELETH        SUNNY     28   0  29 N9G17     30.13R WCI  20
DULUTH HARBOR  SUNNY     32   5  32 N14       30.15R WCI  22
TWO HARBORS    SUNNY     30   9  40 N3        30.09S
SILVER BAY     SUNNY     28   0  29 NW9G20    30.09R WCI  20
GRAND MARAIS     N/A     27   2  34 N8        30.13R WCI  19
G MARAIS ARPRT SUNNY     19   0  42 NW12G21   30.05R WCI   7
$$
MNZ029>031-032-039>041-046>048-054>057-064-270000-
   West Central Minnesota

CITY           SKY/WX    TMP DP  RH WIND       PRES   REMARKS
FERGUS FALLS   SUNNY     30   7  37 N15G21    30.22R WCI  19
WHEATON        SUNNY     32  10  40 N17G24    30.23R WCI  21
MORRIS         SUNNY     34  16  47 N20       30.17R WCI  22
ALEXANDRIA     SUNNY     31  12  45 NW15G23   30.15R WCI  20
ELBOW LAKE     FAIR      30  10  43 N16G24    30.18R WCI  19
WADENA         SUNNY     30   9  40 N12G21    30.15R WCI  21
GLENWOOD       SUNNY     32  12  43 N16       30.15S WCI  21
APPLETON       MOSUNNY   36  14  41 N17G24    30.18S
BENSON         MOSUNNY   34  14  44 N12G17    30.17S WCI  25
ORTONVILLE     SUNNY     34  14  44 N21       30.18S WCI  22
MADISON        PTSUNNY   34  18  51 N16       30.19S WCI  23
WILLMAR        FAIR      30  18  59 NW12      30.17R WCI  21
$$
MNZ033>034-036-042>043-049>051-058-059-270000-
   Central Minnesota

CITY           SKY/WX    TMP DP  RH WIND       PRES   REMARKS
ST CLOUD       SUNNY     34   9  35 N14       30.12S WCI  25
SAUK CENTRE    FAIR      31  11  42 NW14G22   30.15R WCI  21
PAYNESVILLE    SUNNY     28  15  58 W8        30.15R WCI  20
AITKIN         SUNNY     34   3  27 N14       30.12R WCI  24
PINE RIVER     SUNNY     28   5  37 N15       30.18R WCI  17
BRAINERD       SUNNY     31   5  33 NW16      30.14S WCI  20
STAPLES        SUNNY     30   1  29 N13       30.14S WCI  20
LONG PRAIRIE   FAIR      32  10  40 NW13      30.14R WCI  22
LITTLE FALLS   SUNNY     32   5  32 N6        30.13R WCI  26
LITCHFIELD     PTSUNNY   32  18  55 NW10G16   30.15R WCI  24
BUFFALO        PTSUNNY   34  10  37 NW14G21   30.13S WCI  24
MAPLE LAKE     MOSUNNY   35  14  42 N10G16    30.13S WCI  27
$$
MNZ037-044-045-052-053-270000-
   East Central Minnesota

CITY           SKY/WX    TMP DP  RH WIND       PRES   REMARKS
PRINCETON      SUNNY     36   9  32 N12       30.13R
MORA           SUNNY     32   7  34 N10G16    30.13S WCI  24
CAMBRIDGE      SUNNY     36  16  44 NW12      30.10S
RUSH CITY      MOSUNNY   33   6  32 NW9G17    30.11S WCI  25
MOOSE LAKE     SUNNY     32   5  32 N9G17     30.11R WCI  24
HINCKLEY       FAIR      32   7  34 N13       30.11S WCI  22
CLOQUET        SUNNY     28   0  29 N13G21    30.10S WCI  18
MCGREGOR       SUNNY     32   5  32 N13       30.12S WCI  22
$$
MNZ071>073-080-081-089-090-097-098-270000-
   Southwest Minnesota

CITY           SKY/WX    TMP DP  RH WIND       PRES   REMARKS
MONTEVIDEO     PTSUNNY   34  21  60 NE18G24   30.18F WCI  23
GRANITE FALLS  CLOUDY    30  19  63 NW17      30.20R WCI  19
CANBY          PTSUNNY   33  18  53 N15       30.20R WCI  23
MARSHALL       CLOUDY    30  16  55 N21       30.18R WCI  17
REDWOOD FALLS  CLOUDY    31  18  58 N13G21    30.17R WCI  21
OLIVIA         CLOUDY    30  21  69 N13       30.16R WCI  20
PIPESTONE      PTSUNNY   34  18  51 N9G17     30.14R WCI  26
WINDOM         CLOUDY    30  19  64 NW17G24   30.14R WCI  18
WORTHINGTON    CLOUDY    34  18  51 N18G24    30.14S WCI  23
JACKSON        CLOUDY    32  19  59 N12G26    30.13R WCI  23
TRACY          CLOUDY    32  20  61 NW14G22   30.16R WCI  22
SLAYTON        CLOUDY    32  15  50 N18       30.14R WCI  20
$$
MNZ065>067-074>077-082>085-091>093-270000-
   South Central Minnesota

CITY           SKY/WX    TMP DP  RH WIND       PRES   REMARKS
MANKATO        CLOUDY    30  18  59 NW14G21   30.13R WCI  20
NEW ULM        CLOUDY    30  19  64 N12G18    30.15R WCI  21
ST JAMES       CLOUDY    32  21  64 NW17      30.16R WCI  21
FAIRMONT       CLOUDY    32  19  59 N18       30.12R WCI  20
GLENCOE        CLOUDY    32  21  63 NW10      30.13S WCI  24
FARIBAULT      CLOUDY    32  21  64 NW9       30.11S WCI  24
OWATONNA       CLOUDY    32  21  64 NW16      30.10S WCI  21
WASECA         CLOUDY    32  23  69 NW15      30.12S WCI  22
ALBERT LEA     CLOUDY    30  21  69 NW13      30.10S WCI  20
$$
MNZ078>079-086>088-094>096-270000-
   Southeast Minnesota

CITY           SKY/WX    TMP DP  RH WIND       PRES   REMARKS
ROCHESTER      CLOUDY    31  21  66 NW17      30.07R WCI  19
RED WING       CLOUDY    36  16  44 N7        30.09R
STANTON        CLOUDY    33  20  57 NW14      30.09R WCI  24
DODGE CENTER   PTSUNNY   32  21  64 NW14      30.08R WCI  22
WINONA         CLOUDY    36  19  51 N9        30.08S
AUSTIN         CLOUDY    30  19  64 NW13      30.09S WCI  20
PRESTON        CLOUDY    30  20  67 NW14      30.07S WCI  20
$$
ABBREVIATIONS USED IN REMARKS
   TC - TEMPERATURES IN CELSIUS
  WCI - WIND CHILL INDEX
   HX - HEAT INDEX
  VSB - VISIBILITY
$$


USA.gov is the U.S. government's official web portal to all federal, state and local government web resources and services.